Location: Pryor
(45.4297°N, 108.5332°W)
Time: 05:52:53
(UTC+00:00)

N. Korean satellite - Visible Passes

Search period start: 25 January 2022 00:00
Search period end: 04 February 2022 00:00
Orbit: 447 x 491 km, 97.3° (Epoch: 24 January)

Date Brightness Start Highest point End Pass type
(mag) Time Alt. Az. Time Alt. Az. Time Alt. Az.
25 Jan 6.5 12:33:18 10° NNE 12:36:58 87° ESE 12:37:10 79° S visible
26 Jan 9.8 00:43:52 10° WSW 00:45:42 14° W 00:47:34 10° WNW visible
26 Jan 8.1 12:04:19 10° NNE 12:07:44 36° E 12:08:06 35° ESE visible
26 Jan 8.1 13:38:11 10° NNW 13:40:35 17° WNW 13:42:09 13° W visible
27 Jan 9.4 11:35:53 10° NE 11:38:21 17° E 11:39:02 16° ESE visible
27 Jan 7.2 13:08:15 10° N 13:11:36 34° WNW 13:13:05 24° WSW visible
28 Jan 6.4 12:38:49 10° N 12:42:28 80° WNW 12:44:02 32° SSW visible
29 Jan 10.0 00:49:50 10° WSW 00:51:13 12° W 00:52:37 10° WNW visible
29 Jan 7.7 12:09:42 10° NNE 12:13:12 42° E 12:15:02 23° SSE visible
29 Jan 8.3 13:43:53 10° NNW 13:45:59 15° WNW 13:48:06 10° W visible
30 Jan 9.2 11:41:05 10° NE 11:43:48 19° E 11:46:04 12° SE visible
30 Jan 7.4 13:13:46 10° N 13:16:58 30° WNW 13:20:08 10° SW visible
31 Jan 6.4 12:44:12 10° N 12:47:50 68° WNW 12:51:17 11° SSW visible
01 Feb 10.4 00:56:04 10° W 00:56:38 10° W 00:57:11 10° W visible
01 Feb 7.4 12:15:00 10° NNE 12:18:33 50° E 12:22:03 10° S visible
01 Feb 8.4 13:49:31 10° NW 13:51:16 13° WNW 13:53:00 10° W visible
02 Feb 9.0 11:46:14 10° NE 11:49:09 22° E 11:52:00 10° SSE visible
02 Feb 7.5 13:19:10 10° NNW 13:22:15 26° WNW 13:25:16 10° SW visible
03 Feb 10.0 11:19:00 10° E 11:19:35 10° E 11:20:09 10° E visible
03 Feb 6.5 12:49:30 10° N 12:53:05 58° WNW 12:56:36 10° SSW visible
